Location: Newark
(53.3333°N, 83.7500°E)
Time: 00:12:56
(UTC+00:00)

SR - Pass Details

Date: 13 November 2019
Orbit: 573 x 882 km, 66.7° (Epoch: 06 December)

Event Time Altitude Azimuth Distance (km) Brightness Sun altitude
Rises 13:49:58 0° 276° (W) 3,321 ? -29.3°
Reaches altitude 10° 13:52:48 10° 290° (WNW) 2,437 ? -29.7°
Maximum altitude 13:57:25 25° 344° (NNW) 1,672 ? -30.4°
Enters shadow 13:58:40 23° 4° (N) 1,752 ? -30.6°
